DELTA 1 DEB, 7035

Orbit data source: Space-Track

DELTA 1 DEB, 7035 is space debris in LEO originally from a launch on Tue, 06 Nov 1973 UTC launched from the Air Force Western Test Range (AFWTR). Debris objects in space refer to the collection of defunct objects orbiting the Earth. Examples of debris include non-operational satellites, rocket bodies, and fragments generated from explosions, collisions, or faulty payload assembly.

Loading next visibility...
Identifier
7035, 1973-086AB
Orbit
LEO
Last TLE update
12 hours ago
Origin
Manufacturer
Unknown
Mission
Spacecraft
Bus & Motor
Unknown
Mass
Unknown
Launch date (UTC)
1973-11-06 (52 years ago)
Launch vehicle
Unknown
Launch site
Air Force Western Test Range (AFWTR)
Object type
Payload
Rocket body
Debris
Shape & HBR
Unknown
Radar Cross Section
Medium (>0.1 m² and <1 m²)

Expand to show TLE details & history

TLE from 12 hours ago
0 DELTA 1 DEB
1 07035U 73086AB  25181.86281736 -.00000054  00000-0 -22265-3 0  9998
2 07035 101.7670 137.9824 0318646 338.3177  83.3572 11.83484217228787
Epoch: 2025-06-30T20:42Z
TLE epoch observation values (Epoch: 2025-06-30T20:42:27.419Z)
Latitude
62.8988°
Longitude
-115.69663°
Altitude
1,744.479 km
Speed
7.021 km/s
True Right ascension
07h 36m 20s
True Declination
62° 46' 34"
Sunlit
Object was in daylight at epoch
Visualization orbit readout
Latitude
78.26966°
Longitude
-178.22489°
Altitude
1,858.258 km
Speed
6.926 km/s
Apparent Right ascension
07h 29m 34s
Apparent Declination
35° 52' 21"
Sunlit
Object is in daylight
Visualization observer readout
Local Sidereal Time
20:39:12
Azimuth
14.383° NNE
Elevation
-12.534°
Doppler factor
1
Orbital elements
Apogee altitude
2,012.401 km
Perigee altitude
1,494.191 km
Semi-major axis
8,131.433 km
Eccentricity
0.03186
Inclination
101.767°
RAAN
137.9824°
Arg. of periapsis
338.3177°
True anomaly
Unknown
Mean anomaly
83.3572°
Eccentric anomaly
Unknown
Mean motion
2.96001 °/min
Orbital period
121.62 mins
BSTAR
-0.00022265
Loading maneuver chart data...
Loading SW <> Apogee altitude chart data...
Loading historical data...
Loading historical data...
Loading historical data...
Loading historical data...
Loading historical data...
Loading historical data...
Loading historical data...

DELTA 1 DEB Visibility forecast

Observer location: undefined°, undefined°

Span
Click to sort rows by Start time (UTC) header in descending order
Start Az.
Max El. time (UTC)
Max El. Az.
Max El.
End time (UTC)
End Az.
20 mins2025-07-01 09:10:00.023Z28.566° NE2025-07-01 09:20:00.023Z107.429° ESE37.571°2025-07-01 09:30:00.023Z173.806° S
18 mins2025-07-01 11:10:00.023Z4.644° NNE2025-07-01 11:19:00.023Z292.304° WNW36.563°2025-07-01 11:28:00.023Z231.764° WSW
5 mins2025-07-01 13:13:00.023Z333.435° NNW2025-07-01 13:15:00.023Z321.667° NNW12.502°2025-07-01 13:18:00.023Z304.465° NW
11 mins2025-07-01 18:52:00.023Z88.335° E2025-07-01 18:57:00.023Z50.042° ENE21.147°2025-07-01 19:03:00.023Z7.459° NNE
16 mins2025-07-01 20:48:00.023Z160.137° S2025-07-01 20:55:00.023Z138.854° SSE44.999°2025-07-01 21:04:00.023Z342.852° N
9 mins2025-07-01 22:52:00.023Z243.461° WSW2025-07-01 22:56:00.023Z274.028° WNW16.895°2025-07-01 23:01:00.023Z308.38° NW
5 mins2025-07-02 07:37:00.023Z74.017° E2025-07-02 07:39:00.023Z85.378° E11.954°2025-07-02 07:42:00.023Z102.147° ESE
|